Portada
METAR-TAF:

METAR-TAF

Aeroports :

Santa Ana del Yacuma, Bolívia

latitud: 13-46S, longitud: 065-26W, altitud: 144 m

Observació

L'informe es va fer fa 23 minuts, a les 21:00 UTC
Vent 8 kt del Nord/Nord-Oest
Temperatura 31°C
Humitat 66%
Pressió 1003 hPa
Visibilitat 10 km o més
Escasses núvols a una alçada de 1700 ft
Cel ennuvolat a una alçada de 20000 ft

METAR: SLSA 262100Z 33008KT 9999 FEW017 BKN200 31/24 Q1003

Hora: 17:23 (21:23 UTC)


TAF: manca

Observacions i pronòstics meteorològics de més de 4000 aeroports (METAR i TAF).

Les estacions disponibles són els punts grocs i vermells al mapa.

Posi el ratolí al punt desitjat per veure el nom de l'estació.

Feu clic per veure les observacions i els pronòstics meteorològics.

Per canviar el mapa: feu clic els botons verds amb una creu de color negre per apropar; al botó verd amb un guió per allunyar la imatge; o en les fletxes verdes per a mapes adjacents.


METAR-TAF: